DateTimeUTC,F1_A11,F1_S11,BsB_S11,BsG_S11,BsR_S11,BbsB_S11,BbsG_S11,BbsR_S11,BaB_A11,BaG_A11,BaR_A11,Tu_S11,T_S11,Uu_S11,U_S11,P_S11,T1_A11
2021-07-19T09:00:00Z,00000200,20000000,,,,,,,0000.27,-000.36,0000.21,18.8,25.3,13.4,09.0,0675.0,31.1
2021-07-19T09:01:00Z,00000200,20000000,,,,,,,-000.47,0000.20,-000.10,18.8,25.3,13.4,09.0,0675.1,31.1
2021-07-19T09:02:00Z,00000200,20000000,,,,,,,0000.20,0000.02,-000.09,18.8,25.3,13.4,09.0,0675.1,31.1
2021-07-19T09:03:00Z,00000200,60000000,,,,,,,0000.27,0000.31,0000.17,18.8,25.3,13.4,09.0,0675.1,31.1
2021-07-19T09:04:00Z,00000200,40000000,0003.03,0001.85,0000.86,0001.07,0000.42,-000.23,0000.61,0000.39,0000.42,18.8,25.1,13.4,09.1,0676.0,31.1
2021-07-19T09:05:00Z,00000200,00000000,0002.34,0001.73,0000.75,0000.84,0000.06,-000.12,0000.56,0000.57,0000.20,18.9,25.1,13.3,09.1,0676.0,31.0
2021-07-19T09:06:00Z,00000200,00000000,0002.48,0001.71,0000.78,0000.02,-000.02,0000.11,0000.44,0000.38,0000.28,18.9,25.1,13.4,09.1,0676.0,31.0
2021-07-19T09:07:00Z,00000200,00000000,0002.70,0001.65,0000.96,0000.21,0000.13,0000.26,0000.60,0000.25,0000.56,18.9,25.1,13.4,09.2,0676.0,31.0
2021-07-19T09:08:00Z,00000200,00000000,0001.90,0001.46,0000.80,0000.19,0000.30,0000.32,0000.37,0000.44,0000.34,18.9,25.1,13.3,09.1,0676.1,31.0
2021-07-19T09:09:00Z,00000200,00000000,0002.75,0001.61,0001.02,0000.40,0000.28,-000.10,0000.73,0000.50,0000.06,18.9,25.1,13.4,09.2,0676.0,31.0
2021-07-19T09:10:00Z,00000200,00000000,0003.15,0001.49,0000.85,0000.20,0000.34,0000.13,0000.03,0000.16,0000.06,18.8,25.0,13.2,09.1,0676.0,31.1
2021-07-19T09:11:00Z,00000200,00000000,0002.36,0001.66,0001.21,0000.67,0000.55,0000.29,0000.43,0000.26,0000.43,18.8,25.0,13.3,09.1,0676.0,31.0
2021-07-19T09:12:00Z,00000200,00000000,0003.19,0001.54,0001.03,0000.53,0000.10,0000.22,0000.15,0000.49,0000.12,18.8,25.0,13.2,09.1,0676.0,31.0
2021-07-19T09:13:00Z,00000200,00000000,0002.59,0001.44,0001.00,0000.03,0000.25,0000.22,0000.59,0000.41,0000.50,18.8,25.0,13.2,09.0,0676.1,31.1
2021-07-19T09:14:00Z,00000200,00000000,0002.31,0001.30,0001.07,0000.78,0000.00,0000.26,0000.46,0000.63,0000.13,18.8,25.0,13.2,09.0,0676.1,31.0
2021-07-19T09:15:00Z,00000200,00000000,0002.41,0001.82,0000.76,0000.75,0000.34,0000.08,0000.54,0000.16,0000.26,18.8,25.0,13.2,09.0,0676.0,31.0
2021-07-19T09:16:00Z,00000200,00000000,0002.20,0001.42,0000.88,0000.50,0000.29,-000.12,0000.46,0000.23,0000.60,18.8,25.0,13.1,09.0,0676.1,31.0
2021-07-19T09:17:00Z,00000200,00000000,0002.00,0001.28,0000.73,-000.02,0000.35,-000.10,0000.08,0000.31,0000.02,18.8,25.0,13.2,09.1,0676.1,31.0
2021-07-19T09:18:00Z,00000200,00000000,0002.89,0001.47,0000.84,0000.53,0000.39,0000.28,0000.65,0000.52,0000.19,18.8,25.0,13.2,09.0,0676.1,31.0
2021-07-19T09:19:00Z,00000200,00000000,0002.42,0001.38,0001.03,-000.19,0000.39,0000.26,0000.36,0000.43,0000.47,18.8,25.0,13.2,09.0,0676.1,31.0
2021-07-19T09:20:00Z,00000200,00000000,0002.68,0001.46,0000.85,0000.46,0000.07,0000.15,0000.16,0000.30,-000.05,18.8,25.0,13.1,09.0,0676.1,31.0
2021-07-19T09:21:00Z,00000200,00000000,0002.29,0001.31,0000.91,0000.07,0000.22,0000.54,0000.21,-000.07,0000.01,18.8,25.0,12.9,08.9,0676.1,31.0
2021-07-19T09:22:00Z,00000200,00000000,0001.94,0001.52,0000.84,0000.31,0000.02,-000.12,0000.26,0000.13,0000.26,18.8,25.0,12.6,08.7,0676.1,31.0
2021-07-19T09:23:00Z,00000200,00000000,0002.18,0001.45,0000.81,0000.16,0000.19,0000.49,0000.35,0000.32,0000.21,18.8,25.0,12.6,08.7,0676.1,31.0
2021-07-19T09:24:00Z,00000200,00000000,0001.83,0001.46,0000.88,0000.87,-000.08,0000.04,0000.32,0000.36,0000.38,18.8,25.0,12.6,08.7,0676.2,31.0
2021-07-19T09:25:00Z,00000200,00000000,0002.58,0001.33,0000.79,0000.27,0000.17,0000.18,0000.47,0000.66,0000.15,18.8,25.0,12.6,08.6,0676.1,31.0
2021-07-19T09:26:00Z,00000200,00000000,0002.44,0001.12,0000.33,0000.48,0000.43,0000.24,0000.24,-000.07,0000.49,18.8,25.0,12.7,08.7,0676.2,31.0
2021-07-19T09:27:00Z,00000200,00000000,0001.86,0001.26,0000.46,0000.44,0000.25,0000.15,0000.00,0000.58,-000.17,18.8,25.0,12.7,08.7,0676.2,31.0
2021-07-19T09:28:00Z,00000200,00000000,0001.37,0001.08,0000.65,0000.09,-000.02,-000.18,0000.60,0000.08,0000.33,18.8,24.9,12.7,08.7,0676.2,31.0
2021-07-19T09:29:00Z,00000200,00000000,0001.65,0001.34,0000.50,0000.37,0000.24,0000.22,0000.45,-000.01,0000.25,18.8,25.0,12.5,08.6,0676.2,31.0
2021-07-19T09:30:00Z,00000200,00000000,0002.69,0001.18,0000.58,0000.47,0000.21,-000.03,0000.25,0000.64,0000.23,18.8,24.9,12.5,08.6,0676.2,31.0
2021-07-19T09:31:00Z,00000200,00000000,0001.84,0001.05,0000.61,0000.36,0000.10,-000.14,0000.30,0000.03,-000.01,18.8,24.9,12.6,08.7,0676.2,31.0
2021-07-19T09:32:00Z,00000200,00000000,0002.01,0001.14,0000.44,0000.49,0000.35,0000.17,0000.10,0000.51,0000.52,18.8,24.9,12.5,08.6,0676.2,31.0
2021-07-19T09:33:00Z,00000200,00000000,0002.00,0001.14,0000.88,0000.27,0000.09,0000.15,0000.28,-000.06,-000.32,18.8,24.9,12.5,08.5,0676.2,31.0
2021-07-19T09:34:00Z,00000200,00000000,0001.55,0001.19,0000.71,0000.23,0000.14,-000.03,0000.08,0000.44,0000.21,18.7,24.9,12.3,08.4,0676.2,31.0
2021-07-19T09:35:00Z,00000200,00000000,0001.12,0000.99,0000.60,0000.15,0000.19,-000.05,0000.46,-000.01,0000.22,18.8,24.9,12.4,08.5,0676.2,31.0
2021-07-19T09:36:00Z,00000200,00000000,0001.16,0000.98,0000.44,0000.14,0000.37,-000.02,0000.10,0000.13,0000.13,18.7,24.9,12.4,08.5,0676.2,31.0
2021-07-19T09:37:00Z,00000200,00000000,0000.44,0000.88,0000.74,-000.00,0000.07,-000.06,-000.10,-000.02,0000.08,18.7,24.9,12.4,08.5,0676.2,31.0
2021-07-19T09:38:00Z,00000200,00000000,0001.93,0001.03,0000.48,0000.32,0000.23,0000.51,0000.53,0000.21,-000.03,18.7,24.9,12.3,08.5,0676.2,31.0
2021-07-19T09:39:00Z,00000200,00000000,0001.64,0000.85,0000.60,0000.77,0000.14,-000.18,-000.10,0000.36,0000.42,18.7,24.9,12.5,08.6,0676.2,31.0
2021-07-19T09:40:00Z,00000200,00000000,0000.92,0000.82,0000.35,0000.20,0000.19,0000.05,0000.27,0000.51,-000.07,18.7,24.9,12.4,08.5,0676.2,31.0
2021-07-19T09:41:00Z,00000200,00000000,0001.60,0000.95,0000.09,-000.28,0000.22,-000.03,0000.29,-000.14,0000.46,18.7,24.9,12.3,08.4,0676.2,31.0
2021-07-19T09:42:00Z,00000200,00000000,0001.29,0000.61,0000.47,0000.17,0000.11,-000.21,0000.38,0000.09,-000.00,18.7,24.9,12.3,08.5,0676.2,31.0
2021-07-19T09:43:00Z,00000200,00000000,0001.83,0000.61,0000.19,-000.11,0000.16,0000.17,-000.20,0000.32,-000.04,18.7,24.9,12.3,08.5,0676.2,31.0
2021-07-19T09:44:00Z,00000200,00000000,0000.70,0000.54,0000.05,0000.24,-000.00,-000.42,0000.17,0000.04,0000.04,18.7,24.9,12.2,08.4,0676.1,31.0
2021-07-19T09:45:00Z,00000200,00000000,0001.11,0000.63,0000.49,0000.42,-000.06,-000.14,0000.41,-000.15,-000.14,18.7,24.9,12.1,08.3,0676.1,31.0
2021-07-19T09:46:00Z,00000200,00000000,0001.07,0000.59,-000.20,0000.34,-000.01,-000.09,-000.27,0000.09,0000.22,18.7,24.9,12.1,08.3,0676.2,31.0
2021-07-19T09:47:00Z,00000200,00000000,0001.26,0000.68,0000.34,0000.51,0000.38,0000.20,0000.12,0000.46,0000.25,18.7,24.9,12.0,08.3,0676.2,31.0
2021-07-19T09:48:00Z,00000200,00000000,0001.58,0000.58,0000.31,0000.62,0000.12,0000.10,0000.32,-000.30,-000.11,18.7,24.9,12.2,08.4,0676.2,31.0
2021-07-19T09:49:00Z,00000200,00000000,0000.53,0000.41,0000.56,-000.21,0000.19,-000.10,-000.06,0000.23,-000.17,18.7,24.9,12.0,08.2,0676.2,31.0
2021-07-19T09:50:00Z,00000200,00000000,0001.16,0000.99,0000.49,0000.36,0000.02,0000.12,0000.13,0000.37,0000.05,18.7,24.9,12.1,08.3,0676.1,31.0
2021-07-19T09:51:00Z,00000200,00000000,0001.72,0000.78,0000.44,0000.02,0000.06,0000.00,0000.40,-000.08,0000.49,18.7,24.9,12.1,08.3,0676.1,31.0
2021-07-19T09:52:00Z,00000200,00000000,0000.68,0000.57,0000.48,0000.33,0000.02,-000.04,-000.34,-000.02,-000.06,18.7,24.8,12.1,08.3,0676.2,31.0
2021-07-19T09:53:00Z,00000200,00000000,0000.91,0000.64,0000.42,0000.16,0000.03,-000.08,0000.53,0000.25,-000.20,18.7,24.9,12.0,08.2,0676.1,31.0
2021-07-19T09:54:00Z,00000200,00000000,0001.16,0000.77,0000.31,-000.03,0000.20,0000.08,-000.12,-000.38,0000.62,18.7,24.9,12.0,08.2,0676.1,31.0
2021-07-19T09:55:00Z,00000200,00000000,0000.75,0000.66,0000.72,-000.29,-000.07,0000.32,0000.01,0000.28,-000.19,18.7,24.9,12.0,08.2,0676.1,31.0
2021-07-19T09:56:00Z,00000200,00000000,0001.18,0000.42,0000.26,0000.48,0000.44,-000.10,0000.41,0000.43,-000.22,18.7,24.8,12.0,08.2,0676.1,31.0
2021-07-19T09:57:00Z,00000200,40000000,,,,,,,0000.23,-000.12,0000.12,18.7,24.9,11.5,07.9,0676.1,31.0
2021-07-19T09:58:00Z,00000200,60000000,,,,,,,-000.26,-000.02,-000.02,18.5,25.0,12.2,08.2,0675.1,31.0
2021-07-19T09:59:00Z,00000200,20000000,,,,,,,-000.30,0000.17,-000.07,18.5,25.1,12.1,08.1,0675.1,31.0
